UAL442 KORD-KBOS

Flight info

Callsign UAL442
Flight time 1h 40m
Altitude 37000
Route EBAKE WISMO POSTS PADDE SVM DKK PONCT JFUND2
Aircraft B38M/M-SDE1FGHILORVWXY/HB1

Departure

Time 2026-05-05 17:25
Airport Chicago O'Hare International Airport (KORD)

Arrival

Time 2026-05-05 19:05
Airport Boston Logan International Airport (KBOS)
Time Latitude Longitude Altitude Speed Heading
2026-05-05 16:55 41.97543 -87.90793 673 ft 0 kts 159°
2026-05-05 17:13 41.97544 -87.90793 673 ft 1 kts 158°
2026-05-05 17:14 41.97566 -87.90799 672 ft 4 kts 190°
2026-05-05 17:14 41.97589 -87.90784 673 ft 4 kts 227°
2026-05-05 17:14 41.97604 -87.90754 670 ft 4 kts 247°
2026-05-05 17:14 41.97606 -87.90745 671 ft 1 kts 250°
2026-05-05 17:18 41.97605 -87.90751 672 ft 2 kts 250°
2026-05-05 17:18 41.97598 -87.90776 671 ft 4 kts 250°
2026-05-05 17:18 41.97586 -87.90820 673 ft 6 kts 250°
2026-05-05 17:19 41.97569 -87.90880 673 ft 8 kts 250°
2026-05-05 17:19 41.97548 -87.90958 671 ft 10 kts 250°
2026-05-05 17:19 41.97521 -87.91044 673 ft 9 kts 230°
2026-05-05 17:19 41.97464 -87.91030 672 ft 10 kts 143°
2026-05-05 17:20 41.97407 -87.90967 673 ft 11 kts 139°
2026-05-05 17:20 41.97344 -87.90891 673 ft 13 kts 136°
2026-05-05 17:20 41.97279 -87.90802 673 ft 15 kts 133°
2026-05-05 17:20 41.97214 -87.90768 673 ft 9 kts 198°
2026-05-05 17:21 41.97167 -87.90722 673 ft 10 kts 114°
2026-05-05 17:21 41.97151 -87.90624 673 ft 12 kts 97°
2026-05-05 17:21 41.97144 -87.90506 673 ft 14 kts 94°
2026-05-05 17:22 41.97137 -87.90225 673 ft 14 kts 90°
2026-05-05 17:22 41.97115 -87.90138 673 ft 10 kts 160°
2026-05-05 17:22 41.97049 -87.90104 673 ft 11 kts 120°
2026-05-05 17:22 41.97043 -87.89997 673 ft 12 kts 90°
2026-05-05 17:23 41.97044 -87.89873 673 ft 14 kts 90°
2026-05-05 17:23 41.97044 -87.89732 673 ft 16 kts 90°
2026-05-05 17:23 41.97043 -87.89599 673 ft 11 kts 99°
2026-05-05 17:23 41.97001 -87.89566 673 ft 8 kts 172°
2026-05-05 17:24 41.96943 -87.89564 673 ft 9 kts 174°
2026-05-05 17:24 41.96908 -87.89578 673 ft 5 kts 237°
2026-05-05 17:24 41.96904 -87.89628 673 ft 7 kts 270°
2026-05-05 17:24 41.96905 -87.89863 673 ft 62 kts 270°
2026-05-05 17:25 41.96904 -87.90819 671 ft 140 kts 269°
2026-05-05 17:25 41.96891 -87.91776 890 ft 163 kts 271°
2026-05-05 17:25 41.96865 -87.93949 2105 ft 187 kts 270°
2026-05-05 17:25 41.96868 -87.95687 3233 ft 187 kts 271°
2026-05-05 17:26 41.96848 -87.97492 3821 ft 195 kts 269°
2026-05-05 17:26 41.96787 -87.99324 4413 ft 196 kts 269°
2026-05-05 17:26 41.96715 -88.01199 4864 ft 211 kts 269°
2026-05-05 17:26 41.96754 -88.03258 5254 ft 231 kts 284°
2026-05-05 17:27 41.97556 -88.05091 6118 ft 231 kts 314°
2026-05-05 17:27 41.99000 -88.06126 6844 ft 246 kts 343°
2026-05-05 17:27 42.00761 -88.06075 7457 ft 269 kts
2026-05-05 17:27 42.02510 -88.04889 7892 ft 295 kts 33°
2026-05-05 17:28 42.04145 -88.03102 8456 ft 308 kts 36°
2026-05-05 17:28 42.05806 -88.01228 9165 ft 315 kts 36°
2026-05-05 17:28 42.07469 -87.99254 9818 ft 325 kts 45°
2026-05-05 17:28 42.08618 -87.96611 10403 ft 336 kts 73°
2026-05-05 17:29 42.09153 -87.93477 10733 ft 354 kts 76°
2026-05-05 17:29 42.09808 -87.90184 10987 ft 374 kts 74°
2026-05-05 17:29 42.10542 -87.86716 11224 ft 394 kts 73°
2026-05-05 17:29 42.11328 -87.83100 11502 ft 410 kts 73°
2026-05-05 17:30 42.12150 -87.79362 11877 ft 422 kts 72°
2026-05-05 17:30 42.12994 -87.75529 12368 ft 430 kts 72°
2026-05-05 17:30 42.13846 -87.71647 12978 ft 434 kts 72°
2026-05-05 17:30 42.14706 -87.67716 13562 ft 440 kts 72°
2026-05-05 17:31 42.15572 -87.63753 14155 ft 445 kts 72°
2026-05-05 17:31 42.16447 -87.59740 14769 ft 448 kts 72°
2026-05-05 17:31 42.17328 -87.55696 15416 ft 452 kts 72°
2026-05-05 17:31 42.18220 -87.51584 15960 ft 460 kts 72°
2026-05-05 17:32 42.19122 -87.47429 16554 ft 464 kts 72°
2026-05-05 17:32 42.20028 -87.43240 17161 ft 469 kts 72°
2026-05-05 17:32 42.20946 -87.38989 17759 ft 473 kts 72°
2026-05-05 17:32 42.21866 -87.34722 18318 ft 477 kts 72°
2026-05-05 17:33 42.22792 -87.30408 18808 ft 481 kts 72°
2026-05-05 17:33 42.23725 -87.26065 19343 ft 484 kts 72°
2026-05-05 17:33 42.24651 -87.21738 19828 ft 488 kts 73°
2026-05-05 17:33 42.25607 -87.17266 20324 ft 492 kts 73°
2026-05-05 17:34 42.26559 -87.12805 20799 ft 496 kts 73°
2026-05-05 17:34 42.27506 -87.08309 21276 ft 500 kts 76°
2026-05-05 17:34 42.27986 -87.03657 21737 ft 501 kts 88°
2026-05-05 17:34 42.28215 -86.98958 22173 ft 506 kts 88°
2026-05-05 17:35 42.28430 -86.94197 22642 ft 509 kts 89°
2026-05-05 17:35 42.28628 -86.89416 23118 ft 512 kts 89°
2026-05-05 17:35 42.28821 -86.84600 23556 ft 516 kts 89°
2026-05-05 17:35 42.29014 -86.79746 23929 ft 519 kts 89°
2026-05-05 17:36 42.29205 -86.74864 24282 ft 523 kts 89°
2026-05-05 17:36 42.29396 -86.69938 24643 ft 526 kts 89°
2026-05-05 17:36 42.29584 -86.65016 24993 ft 530 kts 89°
2026-05-05 17:36 42.29774 -86.60018 25337 ft 533 kts 89°
2026-05-05 17:37 42.29961 -86.55018 25678 ft 536 kts 89°
2026-05-05 17:37 42.30085 -86.51678 25932 ft 538 kts 89°
2026-05-05 17:37 42.30333 -86.44909 26392 ft 542 kts 89°
2026-05-05 17:37 42.30517 -86.39805 26715 ft 545 kts 89°
2026-05-05 17:38 42.30700 -86.34673 27045 ft 548 kts 89°
2026-05-05 17:38 42.30881 -86.29538 27366 ft 551 kts 89°
2026-05-05 17:38 42.31062 -86.24325 27672 ft 555 kts 89°
2026-05-05 17:38 42.31241 -86.19111 27998 ft 557 kts 89°
2026-05-05 17:39 42.31419 -86.13894 28384 ft 558 kts 88°
2026-05-05 17:39 42.31488 -86.08651 28799 ft 557 kts 93°
2026-05-05 17:39 42.31396 -86.03424 29210 ft 557 kts 93°
2026-05-05 17:39 42.31328 -85.98204 29618 ft 557 kts 92°
2026-05-05 17:40 42.31272 -85.92976 30013 ft 558 kts 92°
2026-05-05 17:40 42.31216 -85.87723 30355 ft 558 kts 92°
2026-05-05 17:40 42.31159 -85.82496 30694 ft 558 kts 92°
2026-05-05 17:40 42.31099 -85.77244 31037 ft 558 kts 92°
2026-05-05 17:41 42.31037 -85.71997 31390 ft 558 kts 92°
2026-05-05 17:41 42.30973 -85.66755 31739 ft 558 kts 92°
2026-05-05 17:41 42.30906 -85.61540 32068 ft 558 kts 92°
2026-05-05 17:41 42.30837 -85.56296 32411 ft 558 kts 92°
2026-05-05 17:42 42.30765 -85.51057 32751 ft 558 kts 92°
2026-05-05 17:42 42.30691 -85.45807 33085 ft 558 kts 92°
2026-05-05 17:42 42.30614 -85.40482 33391 ft 559 kts 93°
2026-05-05 17:42 42.30535 -85.35252 33733 ft 558 kts 93°
2026-05-05 17:43 42.30455 -85.30030 34031 ft 558 kts 93°
2026-05-05 17:43 42.30373 -85.24861 34315 ft 558 kts 93°
2026-05-05 17:43 42.30287 -85.19619 34601 ft 557 kts 92°
2026-05-05 17:43 42.30198 -85.14313 34888 ft 557 kts 92°
2026-05-05 17:44 42.30108 -85.09087 35189 ft 557 kts 92°
2026-05-05 17:44 42.30010 -85.03870 35511 ft 556 kts 93°
2026-05-05 17:44 42.29927 -85.00408 35727 ft 555 kts 93°
2026-05-05 17:44 42.29804 -84.95235 36031 ft 554 kts 93°
2026-05-05 17:45 42.29680 -84.90025 36285 ft 554 kts 93°
2026-05-05 17:45 42.29555 -84.84837 36458 ft 554 kts 93°
2026-05-05 17:45 42.29427 -84.79642 36603 ft 553 kts 93°
2026-05-05 17:45 42.29298 -84.74460 36744 ft 552 kts 93°
2026-05-05 17:46 42.29165 -84.69270 36852 ft 553 kts 93°
2026-05-05 17:46 42.28896 -84.58954 36813 ft 548 kts 93°
2026-05-05 17:47 42.28660 -84.48674 36822 ft 549 kts 88°
2026-05-05 17:47 42.29170 -84.43597 36840 ft 546 kts 76°
2026-05-05 17:47 42.29900 -84.38558 36812 ft 549 kts 76°
2026-05-05 17:48 42.31461 -84.28435 36826 ft 548 kts 81°
2026-05-05 17:48 42.32751 -84.18282 36830 ft 548 kts 78°
2026-05-05 17:49 42.34146 -84.08217 36839 ft 548 kts 78°
2026-05-05 17:49 42.35565 -83.98030 36837 ft 548 kts 78°
2026-05-05 17:50 42.36967 -83.87906 36842 ft 549 kts 78°
2026-05-05 17:50 42.38361 -83.77767 36840 ft 549 kts 78°
2026-05-05 17:51 42.39747 -83.67623 36839 ft 549 kts 78°
2026-05-05 17:51 42.40915 -83.57446 36827 ft 548 kts 88°
2026-05-05 17:52 42.41318 -83.47149 36834 ft 549 kts 88°
2026-05-05 17:52 42.41693 -83.36850 36820 ft 549 kts 88°
2026-05-05 17:53 42.42056 -83.26561 36845 ft 548 kts 88°
2026-05-05 17:53 42.42411 -83.16263 36834 ft 547 kts 88°
2026-05-05 17:54 42.42757 -83.05957 36830 ft 548 kts 88°
2026-05-05 17:54 42.43092 -82.95670 36830 ft 548 kts 88°
2026-05-05 17:55 42.43420 -82.85353 36829 ft 548 kts 88°
2026-05-05 17:55 42.43737 -82.75051 36800 ft 548 kts 89°
2026-05-05 17:56 42.44046 -82.64749 36796 ft 548 kts 89°
2026-05-05 17:56 42.44345 -82.54453 36799 ft 548 kts 89°
2026-05-05 17:57 42.44635 -82.44139 36797 ft 548 kts 89°
2026-05-05 17:57 42.44915 -82.33856 36794 ft 547 kts 89°
2026-05-05 17:58 42.45186 -82.23582 36810 ft 546 kts 89°
2026-05-05 17:58 42.45447 -82.13309 36809 ft 546 kts 89°
2026-05-05 17:59 42.45699 -82.03054 36809 ft 546 kts 89°
2026-05-05 17:59 42.45942 -81.92794 36805 ft 546 kts 89°
2026-05-05 18:00 42.46176 -81.82510 36800 ft 546 kts 89°
2026-05-05 18:00 42.46401 -81.72227 36794 ft 546 kts 90°
2026-05-05 18:01 42.46618 -81.61937 36789 ft 547 kts 89°
2026-05-05 18:01 42.46823 -81.51667 36797 ft 548 kts 90°
2026-05-05 18:02 42.47022 -81.41338 36788 ft 548 kts 90°
2026-05-05 18:02 42.47210 -81.31013 36791 ft 548 kts 90°
2026-05-05 18:03 42.47389 -81.20744 36796 ft 549 kts 89°
2026-05-05 18:03 42.47559 -81.10429 36798 ft 549 kts 90°
2026-05-05 18:04 42.47721 -81.00085 36795 ft 549 kts 90°
2026-05-05 18:04 42.47872 -80.89786 36780 ft 548 kts 89°
2026-05-05 18:05 42.48014 -80.79472 36793 ft 546 kts 89°
2026-05-05 18:05 42.48147 -80.69185 36800 ft 546 kts 90°
2026-05-05 18:06 42.48271 -80.58901 36784 ft 546 kts 90°
2026-05-05 18:06 42.48386 -80.48630 36781 ft 545 kts 89°
2026-05-05 18:07 42.48490 -80.38375 36782 ft 543 kts 89°
2026-05-05 18:07 42.48585 -80.28152 36773 ft 544 kts 89°
2026-05-05 18:08 42.48672 -80.17933 36779 ft 544 kts 90°
2026-05-05 18:08 42.48749 -80.07710 36770 ft 541 kts 89°
2026-05-05 18:09 42.48817 -79.97555 36776 ft 541 kts 89°
2026-05-05 18:09 42.48876 -79.87378 36776 ft 541 kts 89°
2026-05-05 18:10 42.48926 -79.77188 36766 ft 540 kts 89°
2026-05-05 18:10 42.48967 -79.67033 36793 ft 538 kts 89°
2026-05-05 18:11 42.49002 -79.56921 36806 ft 538 kts 90°
2026-05-05 18:11 42.49028 -79.46788 36817 ft 538 kts 90°
2026-05-05 18:12 42.49046 -79.36680 36825 ft 535 kts 90°
2026-05-05 18:12 42.49146 -79.26624 36812 ft 533 kts 84°
2026-05-05 18:13 42.49804 -79.16626 36821 ft 534 kts 83°
2026-05-05 18:13 42.50497 -79.06605 36831 ft 535 kts 84°
2026-05-05 18:14 42.51187 -78.96582 36807 ft 534 kts 84°
2026-05-05 18:14 42.51860 -78.86653 36794 ft 533 kts 84°
2026-05-05 18:15 42.52533 -78.76596 36780 ft 533 kts 84°
2026-05-05 18:15 42.53195 -78.66576 36767 ft 533 kts 84°
2026-05-05 18:16 42.53846 -78.56586 36777 ft 530 kts 84°
2026-05-05 18:16 42.54481 -78.46711 36787 ft 531 kts 84°
2026-05-05 18:17 42.55114 -78.36731 36790 ft 531 kts 84°
2026-05-05 18:17 42.55738 -78.26754 36781 ft 531 kts 84°
2026-05-05 18:18 42.56352 -78.16796 36772 ft 531 kts 84°
2026-05-05 18:18 42.56961 -78.06766 36779 ft 531 kts 84°
2026-05-05 18:19 42.57555 -77.96858 36778 ft 531 kts 84°
2026-05-05 18:19 42.58145 -77.86853 36791 ft 528 kts 84°
2026-05-05 18:20 42.58723 -77.76915 36772 ft 529 kts 85°
2026-05-05 18:20 42.59290 -77.67019 36781 ft 530 kts 85°
2026-05-05 18:21 42.59853 -77.57046 36768 ft 529 kts 85°
2026-05-05 18:21 42.60407 -77.47056 36774 ft 528 kts 85°
2026-05-05 18:22 42.60948 -77.37143 36785 ft 528 kts 85°
2026-05-05 18:22 42.61483 -77.27210 36785 ft 528 kts 85°
2026-05-05 18:23 42.61918 -77.18977 36784 ft 526 kts 85°
2026-05-05 18:23 42.62433 -77.09114 36796 ft 524 kts 85°
2026-05-05 18:24 42.62940 -76.99237 36791 ft 524 kts 85°
2026-05-05 18:24 42.63437 -76.89384 36786 ft 523 kts 85°
2026-05-05 18:25 42.63924 -76.79554 36748 ft 521 kts 85°
2026-05-05 18:25 42.64401 -76.69770 36763 ft 520 kts 85°
2026-05-05 18:26 42.64870 -76.59961 36780 ft 521 kts 86°
2026-05-05 18:26 42.65332 -76.50132 36754 ft 523 kts 85°
2026-05-05 18:27 42.65786 -76.40296 36768 ft 520 kts 86°
2026-05-05 18:27 42.66230 -76.30492 36762 ft 520 kts 86°
2026-05-05 18:28 42.66880 -76.15800 36754 ft 520 kts 86°
2026-05-05 18:28 42.67302 -76.06013 36757 ft 515 kts 86°
2026-05-05 18:29 42.67711 -75.96334 36749 ft 514 kts 86°
2026-05-05 18:29 42.68112 -75.86637 36768 ft 514 kts 86°
2026-05-05 18:30 42.68505 -75.76961 36762 ft 513 kts 86°
2026-05-05 18:30 42.68888 -75.67320 36788 ft 510 kts 86°
2026-05-05 18:31 42.69264 -75.57685 36787 ft 509 kts 86°
2026-05-05 18:31 42.69626 -75.48164 36789 ft 509 kts 86°
2026-05-05 18:32 42.69983 -75.38542 36777 ft 509 kts 87°
2026-05-05 18:32 42.70333 -75.28940 36778 ft 508 kts 87°
2026-05-05 18:33 42.70674 -75.19344 36771 ft 508 kts 87°
2026-05-05 18:33 42.71006 -75.09767 36756 ft 508 kts 87°
2026-05-05 18:34 42.71329 -75.00261 36750 ft 505 kts 88°
2026-05-05 18:34 42.71640 -74.90815 36746 ft 503 kts 88°
2026-05-05 18:35 42.71947 -74.81315 36751 ft 503 kts 88°
2026-05-05 18:35 42.72245 -74.71805 36751 ft 503 kts 88°
2026-05-05 18:36 42.72536 -74.62294 36751 ft 503 kts 88°
2026-05-05 18:36 42.72818 -74.52789 36744 ft 503 kts 88°
2026-05-05 18:37 42.73093 -74.43289 36747 ft 503 kts 88°
2026-05-05 18:37 42.73360 -74.33770 36753 ft 503 kts 89°
2026-05-05 18:38 42.73622 -74.24249 36763 ft 499 kts 89°
2026-05-05 18:38 42.73872 -74.14922 36749 ft 500 kts 89°
2026-05-05 18:39 42.74117 -74.05469 36734 ft 500 kts 89°
2026-05-05 18:39 42.74355 -73.96009 36732 ft 500 kts 89°
2026-05-05 18:40 42.74586 -73.86561 36741 ft 499 kts 90°
2026-05-05 18:40 42.74618 -73.77140 36761 ft 499 kts 92°
2026-05-05 18:41 42.74546 -73.67696 36745 ft 499 kts 92°
2026-05-05 18:41 42.74486 -73.58302 36751 ft 494 kts 92°
2026-05-05 18:42 42.74420 -73.48983 36758 ft 492 kts 92°
2026-05-05 18:42 42.74347 -73.39673 36784 ft 492 kts 92°
2026-05-05 18:43 42.74267 -73.30365 36732 ft 492 kts 92°
2026-05-05 18:43 42.74224 -73.25718 35526 ft 495 kts 92°
2026-05-05 18:43 42.74179 -73.21041 34627 ft 491 kts 92°
2026-05-05 18:44 42.74132 -73.16408 33705 ft 490 kts 91°
2026-05-05 18:44 42.74055 -73.11799 32668 ft 491 kts 96°
2026-05-05 18:44 42.73578 -73.07186 31755 ft 494 kts 101°
2026-05-05 18:44 42.73052 -73.02564 30996 ft 494 kts 100°
2026-05-05 18:45 42.72523 -72.97954 30235 ft 494 kts 101°
2026-05-05 18:45 42.71985 -72.93311 29229 ft 497 kts 100°
2026-05-05 18:45 42.71442 -72.88646 28130 ft 502 kts 100°
2026-05-05 18:45 42.70894 -72.83951 27129 ft 503 kts 101°
2026-05-05 18:46 42.70346 -72.79277 26321 ft 501 kts 101°
2026-05-05 18:46 42.69798 -72.74618 25581 ft 498 kts 101°
2026-05-05 18:46 42.69251 -72.69984 24805 ft 496 kts 101°
2026-05-05 18:46 42.68707 -72.65383 24088 ft 493 kts 101°
2026-05-05 18:47 42.68155 -72.60797 23299 ft 492 kts 101°
2026-05-05 18:47 42.67598 -72.56205 22373 ft 489 kts 102°
2026-05-05 18:47 42.67053 -72.51710 21883 ft 477 kts 102°
2026-05-05 18:47 42.66520 -72.47331 21673 ft 460 kts 102°
2026-05-05 18:48 42.66000 -72.43078 21405 ft 445 kts 102°
2026-05-05 18:48 42.65500 -72.38997 21162 ft 430 kts 102°
2026-05-05 18:48 42.65021 -72.35101 20961 ft 418 kts 102°
2026-05-05 18:48 42.64557 -72.31240 20751 ft 411 kts 102°
2026-05-05 18:49 42.64114 -72.27399 20205 ft 412 kts 102°
2026-05-05 18:49 42.63668 -72.23559 19732 ft 410 kts 102°
2026-05-05 18:49 42.63223 -72.19749 19287 ft 408 kts 102°
2026-05-05 18:49 42.62778 -72.15949 18848 ft 407 kts 102°
2026-05-05 18:50 42.62334 -72.12178 18410 ft 405 kts 102°
2026-05-05 18:50 42.61885 -72.08366 17911 ft 402 kts 102°
2026-05-05 18:50 42.61446 -72.04677 17412 ft 400 kts 102°
2026-05-05 18:50 42.60988 -72.00963 16968 ft 396 kts 102°
2026-05-05 18:51 42.60535 -71.97300 16613 ft 391 kts 102°
2026-05-05 18:51 42.60087 -71.93678 16188 ft 389 kts 102°
2026-05-05 18:51 42.59640 -71.90067 15742 ft 388 kts 102°
2026-05-05 18:51 42.59194 -71.86470 15312 ft 385 kts 102°
2026-05-05 18:52 42.58737 -71.82854 14837 ft 384 kts 103°
2026-05-05 18:52 42.58181 -71.79298 14348 ft 385 kts 105°
2026-05-05 18:52 42.57627 -71.75783 13970 ft 381 kts 104°
2026-05-05 18:52 42.57085 -71.72325 13590 ft 377 kts 104°
2026-05-05 18:53 42.56536 -71.68808 13125 ft 375 kts 104°
2026-05-05 18:53 42.55995 -71.65353 12690 ft 374 kts 105°
2026-05-05 18:53 42.55458 -71.61927 12266 ft 370 kts 105°
2026-05-05 18:53 42.54879 -71.58556 11859 ft 364 kts 109°
2026-05-05 18:54 42.54190 -71.55276 11452 ft 359 kts 108°
2026-05-05 18:54 42.53793 -71.51987 11119 ft 356 kts 95°
2026-05-05 18:54 42.53909 -71.48662 10952 ft 347 kts 82°
2026-05-05 18:54 42.54414 -71.45503 10806 ft 336 kts 77°
2026-05-05 18:55 42.54984 -71.42520 10680 ft 326 kts 76°
2026-05-05 18:55 42.55568 -71.39531 10505 ft 321 kts 76°
2026-05-05 18:55 42.56133 -71.36652 10229 ft 320 kts 76°
2026-05-05 18:55 42.56718 -71.33693 9851 ft 321 kts 76°
2026-05-05 18:56 42.57295 -71.30808 9430 ft 321 kts 76°
2026-05-05 18:56 42.57899 -71.27859 8990 ft 320 kts 76°
2026-05-05 18:56 42.58492 -71.24989 8563 ft 319 kts 76°
2026-05-05 18:56 42.59100 -71.22095 8135 ft 319 kts 76°
2026-05-05 18:57 42.59719 -71.19210 7710 ft 318 kts 76°
2026-05-05 18:57 42.60340 -71.16327 7292 ft 318 kts 76°
2026-05-05 18:57 42.60971 -71.13419 6858 ft 314 kts 76°
2026-05-05 18:57 42.61593 -71.10604 6449 ft 310 kts 76°
2026-05-05 18:58 42.62219 -71.07865 6026 ft 306 kts 76°
2026-05-05 18:58 42.62846 -71.05131 5589 ft 302 kts 76°
2026-05-05 18:58 42.63300 -71.02352 5189 ft 292 kts 91°
2026-05-05 18:58 42.63049 -70.99724 4794 ft 274 kts 117°
2026-05-05 18:59 42.62175 -70.97541 4412 ft 261 kts 133°
2026-05-05 18:59 42.61074 -70.95630 4030 ft 254 kts 135°
2026-05-05 18:59 42.59973 -70.93781 3663 ft 250 kts 136°
2026-05-05 18:59 42.58772 -70.92114 3288 ft 233 kts 157°
2026-05-05 19:00 42.57335 -70.91561 3181 ft 204 kts 187°
2026-05-05 19:00 42.56015 -70.91850 3139 ft 190 kts 195°
2026-05-05 19:00 42.54760 -70.92206 3111 ft 176 kts 194°
2026-05-05 19:00 42.53587 -70.92519 3028 ft 162 kts 195°
2026-05-05 19:01 42.52886 -70.92750 3047 ft 150 kts 198°
2026-05-05 19:01 42.51925 -70.93124 2900 ft 139 kts 199°
2026-05-05 19:01 42.50719 -70.93655 2676 ft 138 kts 202°
2026-05-05 19:01 42.50110 -70.93939 2596 ft 137 kts 201°
2026-05-05 19:02 42.48925 -70.94496 2371 ft 134 kts 201°
2026-05-05 19:02 42.48339 -70.94777 2256 ft 133 kts 201°
2026-05-05 19:02 42.47461 -70.95200 2092 ft 134 kts 201°
2026-05-05 19:02 42.46577 -70.95627 1909 ft 136 kts 202°
2026-05-05 19:03 42.45686 -70.96057 1763 ft 135 kts 201°
2026-05-05 19:03 42.44788 -70.96495 1611 ft 138 kts 200°
2026-05-05 19:03 42.43909 -70.96919 1405 ft 131 kts 202°
2026-05-05 19:03 42.43053 -70.97334 1210 ft 131 kts 199°
2026-05-05 19:04 42.42196 -70.97750 1039 ft 131 kts 199°
2026-05-05 19:04 42.41337 -70.98174 885 ft 132 kts 199°
2026-05-05 19:04 42.40426 -70.98635 813 ft 145 kts 201°
2026-05-05 19:04 42.39438 -70.99079 629 ft 149 kts 198°
2026-05-05 19:05 42.38448 -70.99561 378 ft 154 kts 199°
2026-05-05 19:05 42.37448 -71.00050 109 ft 153 kts 199°
2026-05-05 19:05 42.36508 -71.00506 28 ft 125 kts 200°
2026-05-05 19:05 42.35938 -71.00779 29 ft 44 kts 199°
2026-05-05 19:06 42.35813 -71.00846 28 ft 3 kts 236°
2026-05-05 19:06 42.35809 -71.00885 28 ft 6 kts 276°
2026-05-05 19:06 42.35816 -71.00949 28 ft 8 kts 277°
2026-05-05 19:06 42.35824 -71.01039 28 ft 11 kts 277°
2026-05-05 19:07 42.35835 -71.01148 28 ft 13 kts 277°
2026-05-05 19:07 42.35844 -71.01237 28 ft 8 kts 278°
2026-05-05 19:07 42.35847 -71.01271 28 ft 0 kts 278°
2026-05-05 19:07 42.35848 -71.01273 28 ft 1 kts 278°
2026-05-05 19:08 42.35850 -71.01297 28 ft 4 kts 278°
2026-05-05 19:08 42.35855 -71.01346 28 ft 7 kts 278°
2026-05-05 19:08 42.35864 -71.01421 28 ft 9 kts 281°
2026-05-05 19:08 42.35879 -71.01519 28 ft 12 kts 281°
2026-05-05 19:09 42.35896 -71.01614 28 ft 10 kts 306°
2026-05-05 19:09 42.35963 -71.01612 28 ft 12 kts 20°
2026-05-05 19:09 42.36046 -71.01572 28 ft 11 kts 20°
2026-05-05 19:09 42.36097 -71.01568 28 ft 6 kts 324°
2026-05-05 19:10 42.36114 -71.01615 28 ft 6 kts 290°
2026-05-05 19:10 42.36124 -71.01651 28 ft 0 kts 289°
2026-05-05 19:10 42.36124 -71.01652 28 ft 1 kts 289°
2026-05-05 19:11 42.36126 -71.01659 28 ft 0 kts 289°